Tracking 18032 objects as of 26-March-2017
HD Live streaming from Space Station
objects crossing your sky now

COSMOS 2128

Track COSMOS 2128 now!
10-day predictions
COSMOS 2128 is classified as:


NORAD ID: 21103
Int'l Code: 1991-009D
Perigee: 1,452.7 km
Apogee: 1,474.9 km
Inclination: 74.0 °
Period: 115.0 minutes
Semi major axis: 7834 km
RCS: 0.6873 m2 (medium)
Launch date: February 12, 1991
Source: Commonwealth of Independent States (former USSR) (CIS)
Launch site: PLESETSK MISSILE AND SPACE COMPLEX (PKMTR)
Your satellite tracking list
Your tracking list is empty





NASA's NSSDC Master Catalog

Two Line Element Set (TLE):
1 21103U 91009D   17083.43515679 +.00000000 +00000-0 +10359-3 0  9996
2 21103 074.0283 074.4346 0014213 125.7096 234.5281 12.51874293193473
Source of the keplerian elements: AFSPC